Weather History for Rifle, CO

Change the Weather History Date:

Saturday, November 6, 2010

  Actual Average Record
Temperature  
Mean Temperature 50 °F 40 °F  
Max Temperature 69 °F 54 °F 75 °F (1934)
Min Temperature 32 °F 26 °F 10 °F (1933)
Degree Days  
Heating Degree Days 15 25  
Month to date heating degree days 144  
Since 1 July heating degree days 788  
Cooling Degree Days 0 0  
Month to date cooling degree days 0  
Year to date cooling degree days 541  
Moisture  
Dew Point 31 °F    
Average Humidity 58    
Maximum Humidity 82    
Minimum Humidity 24    
Precipitation  
Precipitation 0.00 in 0.05 in 0.47 in (1953)
Month to date precipitation 0.32  
Year to date precipitation 12.68  
Sea Level Pressure  
Sea Level Pressure 30.17 in    
Wind  
Wind Speed 1 mph (SE)    
Max Wind Speed 5 mph    
Max Gust Speed -    
Visibility 10 miles    
Events      
T = Trace of Precipitation, MM = Missing Value Source: NWS Daily Summary

Daily Weather History Graph

Daily Weather History Graph

Search for Another Location

Airport:

Trip Planner

Search our weather history database for the weather conditions in past years. The results will help you decide how hot, cold, wet, or windy it might be!

Date:

Astronomy

Nov. 06, 2010 Rise Set
Actual Time 7:44 AM MDT 6:03 PM MDT
Civil Twilight 7:16 AM MDT 6:31 PM MDT
Nautical Twilight 6:44 AM MDT 7:03 PM MDT
Astronomical Twilight 6:13 AM MDT 7:35 PM MDT
Moon 8:25 AM MDT (11/6) 6:14 PM MDT (11/6)
Length of Visible Light 11h 15m
Length of Day
10h 18m
New Moon, 0% of the Moon is Illuminated
Nov 6
New Moon
Nov 13
First Quarter
Nov 21
Full
Nov 28
Last Quarter
Dec 5
New

Hourly Weather History & Observations

Time (MDT) Temp. Windchill Dew Point Humidity Pressure Visibility Wind Dir Wind Speed Gust Speed Precip Events Conditions
12:53 AM 37.9 °F 35.5 °F 30.0 °F 73% 30.21 in 10.0 mi SE 3.5 mph - N/A   Clear
1:53 AM 37.0 °F 34.5 °F 30.0 °F 76% 30.20 in 10.0 mi ESE 3.5 mph - N/A   Clear
2:53 AM 37.0 °F - 28.9 °F 73% 30.19 in 10.0 mi Calm Calm - N/A   Clear
3:53 AM 35.1 °F - 28.9 °F 78% 30.19 in 10.0 mi Calm Calm - N/A   Clear
4:53 AM 34.0 °F - 28.9 °F 82% 30.21 in 10.0 mi Calm Calm - N/A   Clear
5:53 AM 36.0 °F - 28.9 °F 76% 30.23 in 10.0 mi Calm Calm - N/A   Clear
6:53 AM 33.1 °F 30.0 °F 28.0 °F 82% 30.27 in 10.0 mi SE 3.5 mph - N/A   Clear
7:53 AM 32.0 °F 27.5 °F 27.0 °F 82% 30.29 in 10.0 mi East 4.6 mph - N/A   Clear
8:53 AM 35.1 °F - 28.9 °F 78% 30.30 in 10.0 mi Calm Calm - N/A   Clear
9:53 AM 41.0 °F - 30.0 °F 65% 30.28 in 10.0 mi Calm Calm - N/A   Clear
10:53 AM 46.9 °F - 30.9 °F 54% 30.25 in 10.0 mi Calm Calm - N/A   Clear
11:53 AM 52.0 °F - 30.0 °F 43% 30.22 in 10.0 mi Calm Calm - N/A   Clear
12:53 PM 57.9 °F - 30.9 °F 36% 30.17 in 10.0 mi Calm Calm - N/A   Clear
1:53 PM 62.1 °F - 30.0 °F 30% 30.11 in 9.0 mi Calm Calm - N/A   Clear
2:53 PM 64.0 °F - 28.9 °F 27% 30.08 in 10.0 mi Calm Calm - N/A   Clear
3:53 PM 68.0 °F - 30.0 °F 24% 30.05 in 10.0 mi Calm Calm - N/A   Clear
4:53 PM 66.9 °F - 30.0 °F 25% 30.05 in 10.0 mi Calm Calm - N/A   Clear
5:53 PM 59.0 °F - 34.0 °F 39% 30.07 in 10.0 mi SSW 3.5 mph - N/A   Clear
6:53 PM 52.0 °F - 34.0 °F 50% 30.12 in 10.0 mi South 3.5 mph - N/A   Clear
7:53 PM 48.9 °F - 34.0 °F 56% 30.14 in 10.0 mi Calm Calm - N/A   Clear
8:53 PM 46.9 °F - 32.0 °F 56% 30.14 in 10.0 mi Calm Calm - N/A   Clear
9:53 PM 46.9 °F - 33.1 °F 59% 30.14 in 10.0 mi Calm Calm - N/A   Clear
10:53 PM 44.1 °F - 33.1 °F 65% 30.14 in 10.0 mi Calm Calm - N/A   Clear
11:53 PM 42.1 °F - 32.0 °F 67% 30.13 in 10.0 mi Calm Calm - N/A   Clear